AEROCUBE 12A (43556 NORAD) Tracking and Keplerian Element Data

This shows tracking and keplerian element data for the satellite.

Feedback or suggestion? Click here.




ElementValue
Catalog43556
NameAEROCUBE 12A
Epoch Orbit1926
Epoch Day323.51743382
Epoch Year2018
RAAN349.0957
Inclination51.6436
Eccentricity0.0008975
Argument of Perigee38.2326
Mean Anonmoly321.9288
Mean Motion15.28029152
Decay Rate4.57E-06
L11 43556U 18046C 18323.51743382 .00000457 00000-0 29306-4 0 9992
L22 43556 51.6436 349.0957 0008975 38.2326 321.9288 15.28029152 19266

Live tracking and technical data element details for AEROCUBE 12A (NORAD 43556). AEROCUBE 12A can be tracked NOW for your location showing map with azimuth and elevation plus other details from your city location.

Track the satellite on the map from your city or location and see movement details for azimuth, elevation, latitude, longitude, range, height, and movement on the map or in text.







IsCatalogInMostPopularTable: catalog: 43556, numindb: 54
Update: records affected: 1



GetName: 43556 AEROCUBE 12A

Hit Count: updated at: Tue, 20 Nov 2018 11:23:07 GMT